Flight Track Log - Related Links

Times and Time Zones

All times are in EDT time to prevent confusion due to time zone crossing. See the N412GJ flight status page for this flight to view local times or setup timezone preferences in your user account.

Time Position Orientation Groundspeed Altitude Reporting Facility
EDT Latitude Longitude Course Direction KTS MPH feet Rate Location/Type
Fri 02:03:30 PM 31.2069 -81.3308 316° Northwest 294 338 3,400  Level Jacksonville Center
Fri 02:04:30 PM 31.2694 -81.3128 14° North 233 268 6,200 2,550 Climbing Jacksonville Center
Fri 02:05:30 PM 31.3403 -81.3017 North 244 281 8,500 2,450 Climbing Jacksonville Center
Fri 02:06:00 PM 31.5070 -81.7460 316° Northwest  Level FlightAware Approximate
Fri 02:06:30 PM 31.4256 -81.2906 North 272 313 11,100  Level Jacksonville Center
Fri 02:07:30 PM 31.5153 -81.2794 North 308 354 11,200 850 Climbing Jacksonville Center
Fri 02:08:30 PM 31.6069 -81.2681 North 355 409 12,800 1,800 Climbing Jacksonville Center
Fri 02:09:30 PM 31.7133 -81.2636 North 350 403 14,800 1,800 Climbing Jacksonville Center
Fri 02:10:30 PM 31.7728 -81.3408 312° West 322 371 16,400 1,700 Climbing Jacksonville Center
Fri 02:11:30 PM 31.8306 -81.4450 303° West 336 387 18,200 1,750 Climbing Jacksonville Center
Fri 02:12:30 PM 31.8817 -81.5394 303° West 350 403 19,900 1,650 Climbing Jacksonville Center
Fri 02:13:30 PM 31.9264 -81.6269 301° West 350 403 21,500 1,050 Climbing Jacksonville Center
Fri 02:14:30 PM 31.9839 -81.7317 303° West 350 403 22,000 250 Climbing Jacksonville Center
Fri 02:15:30 PM 32.0389 -81.8364 302° West 376 433 22,000  Level Jacksonville Center
Fri 02:16:30 PM 32.0942 -81.9386 303° West 395 455 22,000  Level Jacksonville Center
Fri 02:17:30 PM 32.1597 -82.0631 302° West 402 463 22,000  Level Jacksonville Center
Fri 02:18:30 PM 32.2167 -82.1781 300° West 412 474 22,000  Level Jacksonville Center
Fri 02:19:30 PM 32.2778 -82.2956 302° West 412 474 22,000  Level Jacksonville Center
Fri 02:20:56 PM 32.3669 -82.4600 303° West 418 481 22,000  Level Atlanta Center
Fri 02:21:56 PM 32.4267 -82.5747 302° West 418 481 22,000  Level Atlanta Center
Fri 02:22:56 PM 32.4906 -82.6917 303° West 425 489 22,000  Level Atlanta Center
Fri 02:23:56 PM 32.5503 -82.8067 302° West 420 483 22,000 -100 Level Atlanta Center
Fri 02:24:56 PM 32.6325 -82.9017 316° Northwest 415 478 21,800 -800 Descending Atlanta Center
Fri 02:25:56 PM 32.7231 -82.9894 321° Northwest 415 478 20,400 -1,300 Descending Atlanta Center
Fri 02:26:56 PM 32.8053 -83.0750 319° Northwest 415 478 19,200 -1,250 Descending Atlanta Center
Fri 02:27:56 PM 32.8894 -83.1581 320° Northwest 397 457 17,900 -1,200 Descending Atlanta Center
Fri 02:28:56 PM 32.9733 -83.2464 319° Northwest 397 457 16,800 -1,100 Descending Atlanta Center
Fri 02:29:56 PM 33.0594 -83.3300 321° Northwest 397 457 15,700 -1,150 Descending Atlanta Center
Fri 02:30:56 PM 33.1267 -83.4014 318° Northwest 382 440 14,500 -1,150 Descending Atlanta Center
Fri 02:31:56 PM 33.2064 -83.4828 320° Northwest 377 434 13,400 -1,050 Descending Atlanta Center
Fri 02:32:56 PM 33.2839 -83.5592 321° Northwest 372 428 12,400 -950 Descending Atlanta Center
Fri 02:33:56 PM 33.3469 -83.6261 318° Northwest 342 394 11,500 -700 Descending Atlanta Center
Fri 02:34:56 PM 33.4056 -83.6856 320° Northwest 300 345 11,000 -450 Descending Atlanta Center
Fri 02:35:56 PM 33.4703 -83.7225 335° Northwest 271 312 10,600 -750 Descending Atlanta Center
Fri 02:36:56 PM 33.5414 -83.7472 344° North 254 292 9,500 -1,200 Descending Atlanta Center
Fri 02:37:56 PM 33.6103 -83.7744 342° North 259 298 8,200 -1,300 Descending Atlanta Center
Fri 02:38:56 PM 33.6731 -83.8017 340° North 247 284 6,900 -1,350 Descending Atlanta Center
Fri 02:39:56 PM 33.7378 -83.8289 341° North 247 284 5,500 -1,450 Descending Atlanta Center
Fri 02:40:56 PM 33.8003 -83.8564 340° North 247 284 4,000 -800 Descending Atlanta Center
Fri 02:41:56 PM 33.8589 -83.8836 339° North 235 270 3,900 -605 Descending Atlanta Center
Fri 02:43:05 PM 33.9333 -83.9000 350° North 206 237 2,700 -1,022 Descending Atlanta TRACON
Fri 02:44:11 PM 33.9833 -83.9167 345° North 163 188 1,600 -1,000 Descending Atlanta TRACON
Fri 02:46:00 PM 33.9781 -83.9624 301° West  Level Estimated
Fri 02:53:00 PM 33.9781 -83.9624 112° Southeast  Level Estimated
Fri 02:54:00 PM 33.9781 -83.9624 112° Southeast  Level Estimated

Login

Don't have an account? Register now (free) for customized features, flight alerts, and more!